N224WA KSEZ-KTEX

Flight info

Callsign N224WA
Flight time 0h 42m
Altitude 39000
Route YOOPR CEZ/N0433F380 HAVWU ETL
Aircraft B738/M-SDE2E3FGHIRWXY/LB1

Departure

Time 2026-04-25 22:07
Airport Sedona Airport (KSEZ)

Arrival

Time 2026-04-25 22:50
Airport Telluride Regional Airport (KTEX)
Time Latitude Longitude Altitude Speed Heading
2026-04-25 22:07 34.79887 -111.73436 10454 ft 219 kts 82°
2026-04-25 22:07 34.80248 -111.71642 11320 ft 226 kts 74°
2026-04-25 22:08 34.81168 -111.69965 11541 ft 254 kts 35°
2026-04-25 22:08 34.82695 -111.68707 11814 ft 278 kts 32°
2026-04-25 22:08 34.84330 -111.67246 12091 ft 303 kts 37°
2026-04-25 22:08 34.85963 -111.65496 12493 ft 326 kts 43°
2026-04-25 22:09 34.87670 -111.63485 12744 ft 355 kts 44°
2026-04-25 22:09 34.89420 -111.61283 13415 ft 367 kts 46°
2026-04-25 22:09 34.91152 -111.58968 14297 ft 372 kts 47°
2026-04-25 22:09 34.92850 -111.56574 15161 ft 376 kts 49°
2026-04-25 22:10 34.94533 -111.54105 15980 ft 381 kts 50°
2026-04-25 22:10 34.96217 -111.51575 16796 ft 387 kts 50°
2026-04-25 22:10 34.97913 -111.48998 17572 ft 392 kts 50°
2026-04-25 22:10 34.99620 -111.46380 18297 ft 397 kts 50°
2026-04-25 22:11 35.01355 -111.43719 18987 ft 404 kts 49°
2026-04-25 22:11 35.03122 -111.41025 19772 ft 408 kts 49°
2026-04-25 22:11 35.04895 -111.38316 20472 ft 412 kts 50°
2026-04-25 22:11 35.06680 -111.35555 21058 ft 418 kts 51°
2026-04-25 22:12 35.08450 -111.32773 21753 ft 422 kts 50°
2026-04-25 22:12 35.10304 -111.29905 22457 ft 426 kts 50°
2026-04-25 22:12 35.12131 -111.27095 23043 ft 431 kts 49°
2026-04-25 22:12 35.12760 -111.26128 23223 ft 433 kts 50°
2026-04-25 22:13 35.15904 -111.21289 24115 ft 441 kts 50°
2026-04-25 22:13 35.17807 -111.18328 24669 ft 445 kts 48°
2026-04-25 22:13 35.19790 -111.15408 25226 ft 448 kts 49°
2026-04-25 22:13 35.21741 -111.12413 25755 ft 453 kts 50°
2026-04-25 22:14 35.23691 -111.09360 26230 ft 458 kts 50°
2026-04-25 22:14 35.25658 -111.06266 26690 ft 463 kts 50°
2026-04-25 22:14 35.27643 -111.03150 27172 ft 466 kts 50°
2026-04-25 22:14 35.29649 -111.00009 27646 ft 470 kts 50°
2026-04-25 22:15 35.31671 -110.96852 28112 ft 473 kts 50°
2026-04-25 22:15 35.33715 -110.93667 28538 ft 477 kts 50°
2026-04-25 22:15 35.35779 -110.90451 28932 ft 482 kts 50°
2026-04-25 22:16 35.39950 -110.83941 29734 ft 489 kts 50°
2026-04-25 22:16 35.42032 -110.80686 30130 ft 492 kts 50°
2026-04-25 22:16 35.44176 -110.77333 30480 ft 496 kts 50°
2026-04-25 22:16 35.46312 -110.73991 30814 ft 500 kts 50°
2026-04-25 22:17 35.48462 -110.70623 31134 ft 504 kts 50°
2026-04-25 22:17 35.50630 -110.67222 31463 ft 507 kts 49°
2026-04-25 22:17 35.52809 -110.63800 31786 ft 510 kts 50°
2026-04-25 22:17 35.55003 -110.60351 32100 ft 513 kts 50°
2026-04-25 22:18 35.57194 -110.56905 32506 ft 513 kts 49°
2026-04-25 22:18 35.59394 -110.53443 32955 ft 512 kts 49°
2026-04-25 22:18 35.61583 -110.49992 33381 ft 512 kts 49°
2026-04-25 22:18 35.63768 -110.46542 33758 ft 512 kts 49°
2026-04-25 22:19 35.65226 -110.44293 33988 ft 511 kts 46°
2026-04-25 22:19 35.67702 -110.41161 34341 ft 506 kts 37°
2026-04-25 22:19 35.70361 -110.38335 34716 ft 505 kts 35°
2026-04-25 22:19 35.73043 -110.35566 35122 ft 503 kts 34°
2026-04-25 22:20 35.75734 -110.32809 35453 ft 503 kts 34°
2026-04-25 22:20 35.78426 -110.30043 35771 ft 504 kts 35°
2026-04-25 22:20 35.81105 -110.27264 36142 ft 503 kts 35°
2026-04-25 22:20 35.83769 -110.24475 36518 ft 502 kts 35°
2026-04-25 22:21 35.86418 -110.21687 36847 ft 501 kts 35°
2026-04-25 22:21 35.91700 -110.16100 36938 ft 497 kts 35°
2026-04-25 22:22 35.96901 -110.10584 36933 ft 490 kts 35°
2026-04-25 22:22 36.02059 -110.05111 36924 ft 488 kts 34°
2026-04-25 22:23 36.07209 -109.99671 36928 ft 486 kts 34°
2026-04-25 22:23 36.12351 -109.94224 36935 ft 487 kts 34°
2026-04-25 22:24 36.17496 -109.88736 36934 ft 489 kts 34°
2026-04-25 22:24 36.22648 -109.83225 36931 ft 491 kts 34°
2026-04-25 22:25 36.27820 -109.77692 36916 ft 492 kts 34°
2026-04-25 22:25 36.33005 -109.72131 36909 ft 493 kts 34°
2026-04-25 22:26 36.38196 -109.66557 36919 ft 494 kts 34°
2026-04-25 22:26 36.43398 -109.60962 36903 ft 495 kts 34°
2026-04-25 22:27 36.48598 -109.55354 36909 ft 495 kts 34°
2026-04-25 22:27 36.53785 -109.49750 36906 ft 493 kts 34°
2026-04-25 22:28 36.58961 -109.44151 36908 ft 492 kts 34°
2026-04-25 22:28 36.64105 -109.38572 36898 ft 490 kts 34°
2026-04-25 22:28 36.66685 -109.35773 36507 ft 493 kts 34°
2026-04-25 22:29 36.69258 -109.32977 36018 ft 490 kts 35°
2026-04-25 22:29 36.71827 -109.30184 35471 ft 490 kts 35°
2026-04-25 22:29 36.74395 -109.27388 34885 ft 491 kts 35°
2026-04-25 22:30 36.79532 -109.21787 33893 ft 488 kts 36°
2026-04-25 22:30 36.82082 -109.19002 33441 ft 485 kts 36°
2026-04-25 22:30 36.84612 -109.16234 33000 ft 483 kts 36°
2026-04-25 22:30 36.86283 -109.14409 32699 ft 480 kts 36°
2026-04-25 22:31 36.89626 -109.10753 32137 ft 475 kts 36°
2026-04-25 22:31 36.92068 -109.08080 31712 ft 472 kts 36°
2026-04-25 22:31 36.94528 -109.05380 31286 ft 468 kts 36°
2026-04-25 22:31 36.96963 -109.02705 30865 ft 465 kts 36°
2026-04-25 22:32 36.99390 -109.00032 30446 ft 462 kts 36°
2026-04-25 22:32 37.01792 -108.97393 30039 ft 459 kts 36°
2026-04-25 22:32 37.04187 -108.94762 29613 ft 455 kts 36°
2026-04-25 22:32 37.06555 -108.92156 29184 ft 452 kts 36°
2026-04-25 22:33 37.08909 -108.89563 28755 ft 449 kts 36°
2026-04-25 22:33 37.11240 -108.86992 28328 ft 445 kts 36°
2026-04-25 22:33 37.13554 -108.84438 27905 ft 442 kts 36°
2026-04-25 22:33 37.15857 -108.81893 27459 ft 439 kts 37°
2026-04-25 22:34 37.18139 -108.79369 27042 ft 436 kts 37°
2026-04-25 22:34 37.20406 -108.76857 26618 ft 433 kts 37°
2026-04-25 22:34 37.22655 -108.74365 26188 ft 430 kts 37°
2026-04-25 22:34 37.24886 -108.71895 25769 ft 426 kts 37°
2026-04-25 22:35 37.27101 -108.69439 25343 ft 423 kts 37°
2026-04-25 22:35 37.29299 -108.66999 24929 ft 420 kts 37°
2026-04-25 22:35 37.31473 -108.64582 24518 ft 417 kts 37°
2026-04-25 22:35 37.33637 -108.62175 24107 ft 414 kts 37°
2026-04-25 22:36 37.35785 -108.59783 23686 ft 411 kts 37°
2026-04-25 22:36 37.38053 -108.57668 23270 ft 401 kts 24°
2026-04-25 22:36 37.40510 -108.56240 22976 ft 388 kts 13°
2026-04-25 22:36 37.43066 -108.55382 22684 ft 375 kts
2026-04-25 22:37 37.45657 -108.54923 22321 ft 370 kts
2026-04-25 22:37 37.48206 -108.54504 21928 ft 368 kts
2026-04-25 22:37 37.50701 -108.54101 21561 ft 365 kts
2026-04-25 22:37 37.53216 -108.53620 21144 ft 365 kts
2026-04-25 22:38 37.55711 -108.53252 20763 ft 360 kts
2026-04-25 22:38 37.58187 -108.52852 20368 ft 357 kts
2026-04-25 22:38 37.60639 -108.52427 20011 ft 356 kts
2026-04-25 22:38 37.63082 -108.52001 19612 ft 354 kts
2026-04-25 22:39 37.65547 -108.51566 19223 ft 351 kts
2026-04-25 22:39 37.67954 -108.51139 18861 ft 348 kts
2026-04-25 22:39 37.70341 -108.50717 18481 ft 345 kts
2026-04-25 22:39 37.72714 -108.50296 18101 ft 343 kts
2026-04-25 22:40 37.75070 -108.49882 17744 ft 341 kts
2026-04-25 22:40 37.77413 -108.49473 17382 ft 339 kts
2026-04-25 22:40 37.79738 -108.49064 17038 ft 336 kts
2026-04-25 22:40 37.82053 -108.48656 16972 ft 336 kts
2026-04-25 22:41 37.84336 -108.48254 16953 ft 327 kts
2026-04-25 22:41 37.86517 -108.47866 16935 ft 314 kts
2026-04-25 22:41 37.88625 -108.47492 16839 ft 299 kts
2026-04-25 22:41 37.90665 -108.47131 16731 ft 285 kts
2026-04-25 22:42 37.92613 -108.46790 16449 ft 281 kts
2026-04-25 22:42 37.94514 -108.46457 16083 ft 279 kts
2026-04-25 22:42 37.96383 -108.45741 15964 ft 289 kts 29°
2026-04-25 22:42 37.97818 -108.43937 15913 ft 295 kts 59°
2026-04-25 22:43 37.98697 -108.41602 15902 ft 294 kts 66°
2026-04-25 22:43 37.99494 -108.39141 15180 ft 311 kts 68°
2026-04-25 22:43 38.00319 -108.36584 14624 ft 313 kts 66°
2026-04-25 22:43 38.01167 -108.34128 14534 ft 296 kts 66°
2026-04-25 22:44 38.01981 -108.31778 14321 ft 286 kts 66°
2026-04-25 22:44 38.02771 -108.29489 13960 ft 283 kts 66°
2026-04-25 22:44 38.03473 -108.27158 13488 ft 283 kts 81°
2026-04-25 22:44 38.03418 -108.24703 13081 ft 277 kts 108°
2026-04-25 22:45 38.02665 -108.22563 12974 ft 257 kts 126°
2026-04-25 22:45 38.01761 -108.20685 12902 ft 244 kts 126°
2026-04-25 22:45 38.00900 -108.18890 12789 ft 232 kts 128°
2026-04-25 22:45 38.00063 -108.17196 12694 ft 221 kts 127°
2026-04-25 22:46 37.99508 -108.15418 12568 ft 215 kts 102°
2026-04-25 22:46 37.99248 -108.13601 12402 ft 206 kts 106°
2026-04-25 22:46 37.98958 -108.11865 12228 ft 198 kts 108°
2026-04-25 22:46 37.98679 -108.10177 12016 ft 193 kts 107°
2026-04-25 22:47 37.98402 -108.08512 11820 ft 206 kts 107°
2026-04-25 22:47 37.98081 -108.06589 11945 ft 234 kts 106°
2026-04-25 22:47 37.97757 -108.04585 11866 ft 226 kts 105°
2026-04-25 22:47 37.97508 -108.02679 11471 ft 215 kts 98°
2026-04-25 22:48 37.97477 -108.00734 10743 ft 222 kts 96°
2026-04-25 22:48 37.97195 -107.98925 10369 ft 200 kts 111°
2026-04-25 22:48 37.96777 -107.97305 9992 ft 188 kts 112°
2026-04-25 22:48 37.96383 -107.95777 9721 ft 179 kts 110°
2026-04-25 22:49 37.96074 -107.94281 9552 ft 174 kts 107°
2026-04-25 22:49 37.95784 -107.92756 9209 ft 179 kts 109°
2026-04-25 22:49 37.95477 -107.91328 9033 ft 159 kts 108°
2026-04-25 22:49 37.95250 -107.90248 9050 ft 66 kts 107°
2026-04-25 22:50 37.95167 -107.89872 9065 ft 40 kts 105°
2026-04-25 22:50 37.95172 -107.89681 9075 ft 17 kts 27°
2026-04-25 22:50 37.95257 -107.89740 9072 ft 18 kts 285°
2026-04-25 22:50 37.95292 -107.89907 9064 ft 22 kts 284°
2026-04-25 22:51 37.95333 -107.90111 9057 ft 25 kts 284°
2026-04-25 22:51 37.95372 -107.90315 9057 ft 23 kts 283°
2026-04-25 22:51 37.95381 -107.90362 9057 ft 0 kts 283°